TimeMDT,TemperatureF,Dew PointF,Humidity,Sea Level PressureIn,VisibilityMPH,Wind Direction,Wind SpeedMPH,Gust SpeedMPH,PrecipitationIn,Events,Conditions,WindDirDegrees,DateUTC
12:52 AM,36.0,30.9,82,30.41,-9999.0,NNW,3.5,-,N/A,,Unknown,340,2012-10-06 06:52:00
1:52 AM,33.1,28.9,85,30.40,-9999.0,North,3.5,-,N/A,,Unknown,360,2012-10-06 07:52:00
2:52 AM,33.1,28.9,85,30.43,-9999.0,NW,3.5,-,N/A,,Unknown,320,2012-10-06 08:52:00
3:52 AM,32.0,28.0,85,30.43,-9999.0,Calm,Calm,-,N/A,,Unknown,0,2012-10-06 09:52:00
4:52 AM,30.9,27.0,85,30.44,-9999.0,NNW,4.6,-,N/A,,Unknown,330,2012-10-06 10:52:00
5:52 AM,30.0,27.0,88,30.45,-9999.0,Calm,Calm,-,N/A,,Unknown,0,2012-10-06 11:52:00
6:52 AM,28.9,26.1,89,30.48,-9999.0,Calm,Calm,-,N/A,,Unknown,0,2012-10-06 12:52:00
7:52 AM,28.0,25.0,88,30.50,-9999.0,Calm,Calm,-,N/A,,Unknown,0,2012-10-06 13:52:00
8:52 AM,30.0,26.1,85,30.51,-9999.0,Calm,Calm,-,N/A,,Unknown,0,2012-10-06 14:52:00
9:52 AM,33.1,27.0,78,30.50,-9999.0,Calm,Calm,-,N/A,,Unknown,0,2012-10-06 15:52:00
10:52 AM,37.0,26.1,65,30.48,-9999.0,North,3.5,-,N/A,,Unknown,350,2012-10-06 16:52:00
11:52 AM,43.0,25.0,49,30.44,-9999.0,Calm,Calm,-,N/A,,Unknown,0,2012-10-06 17:52:00
12:52 PM,48.9,21.9,35,30.40,-9999.0,North,3.5,-,N/A,,Unknown,360,2012-10-06 18:52:00
1:52 PM,55.0,23.0,29,30.34,-9999.0,NNW,3.5,-,N/A,,Unknown,340,2012-10-06 19:52:00
2:52 PM,60.1,21.9,23,30.29,-9999.0,Calm,Calm,-,N/A,,Unknown,0,2012-10-06 20:52:00
3:52 PM,60.1,28.9,31,30.26,-9999.0,Calm,Calm,-,N/A,,Unknown,0,2012-10-06 21:52:00
4:52 PM,55.9,30.9,39,30.25,-9999.0,Calm,Calm,-,N/A,,Unknown,0,2012-10-06 22:52:00
5:52 PM,52.0,34.0,50,30.25,-9999.0,Calm,Calm,-,N/A,,Unknown,0,2012-10-06 23:52:00
6:52 PM,48.0,36.0,63,30.27,-9999.0,Calm,Calm,-,N/A,,Unknown,0,2012-10-07 00:52:00
7:52 PM,44.1,34.0,68,30.30,-9999.0,Calm,Calm,-,N/A,,Unknown,0,2012-10-07 01:52:00
8:52 PM,42.1,33.1,70,30.31,-9999.0,North,3.5,-,N/A,,Unknown,360,2012-10-07 02:52:00
9:52 PM,39.9,33.1,77,30.32,-9999.0,Calm,Calm,-,N/A,,Unknown,0,2012-10-07 03:52:00
10:52 PM,37.9,32.0,79,30.33,-9999.0,Calm,Calm,-,N/A,,Unknown,0,2012-10-07 04:52:00
11:52 PM,37.0,32.0,82,30.32,-9999.0,Calm,Calm,-,N/A,,Unknown,0,2012-10-07 05:52:00